Time,TemperatureF,DewpointF,PressureIn,WindDirection,WindDirectionDegrees,WindSpeedMPH,WindSpeedGustMPH,Humidity,HourlyPrecipIn,Conditions,Clouds,dailyrainin,SoftwareType,DateUTC
2013-03-23 00:00:00,43.2,28.6,30.05,West,270,1.0,2.0,56,0.00,,,0.00,meteohub,2013-03-23 04:00:00,
2013-03-23 00:03:00,43.2,28.6,30.05,West,270,1.0,2.0,56,0.00,,,0.00,meteohub,2013-03-23 04:03:00,
2013-03-23 00:08:00,43.0,27.9,30.05,NW,315,2.0,2.0,55,0.00,,,0.00,meteohub,2013-03-23 04:08:00,
2013-03-23 00:13:00,42.8,28.6,30.05,SW,225,1.0,2.0,57,0.00,,,0.00,meteohub,2013-03-23 04:13:00,
2013-03-23 00:20:00,42.4,29.1,30.05,East,90,0.0,2.0,59,0.00,,,0.00,meteohub,2013-03-23 04:20:00,
2013-03-23 00:25:00,42.3,28.9,30.05,SW,225,1.0,2.0,59,0.00,,,0.00,meteohub,2013-03-23 04:25:00,
2013-03-23 00:30:00,42.1,28.8,30.05,SW,225,2.0,2.0,59,0.00,,,0.00,meteohub,2013-03-23 04:30:00,
2013-03-23 00:35:00,42.1,28.8,30.05,North,0,0.0,2.0,59,0.00,,,0.00,meteohub,2013-03-23 04:35:00,
2013-03-23 00:40:00,41.9,28.9,30.05,SW,225,0.0,2.0,60,0.00,,,0.00,meteohub,2013-03-23 04:40:00,
2013-03-23 00:45:00,41.9,29.5,30.05,South,180,1.0,2.0,61,0.00,,,0.00,meteohub,2013-03-23 04:45:00,
2013-03-23 00:50:00,41.9,29.5,30.05,SW,225,1.0,1.0,61,0.00,,,0.00,meteohub,2013-03-23 04:50:00,
2013-03-23 00:55:00,41.9,29.5,30.05,West,270,1.0,1.0,61,0.00,,,0.00,meteohub,2013-03-23 04:55:00,
2013-03-23 01:00:00,41.9,29.8,30.06,West,270,1.0,1.0,62,0.00,,,0.00,meteohub,2013-03-23 05:00:00,
2013-03-23 01:05:00,42.1,30.0,30.06,West,270,1.0,1.0,62,0.00,,,0.00,meteohub,2013-03-23 05:05:00,
2013-03-23 01:10:00,42.3,30.2,30.06,East,90,1.0,2.0,62,0.00,,,0.00,meteohub,2013-03-23 05:10:00,
2013-03-23 01:16:00,42.4,30.4,30.06,SW,225,2.0,2.0,62,0.00,,,0.00,meteohub,2013-03-23 05:16:00,
2013-03-23 01:20:00,42.6,30.2,30.06,East,90,1.0,2.0,61,0.00,,,0.00,meteohub,2013-03-23 05:20:00,
2013-03-23 01:26:00,43.0,29.3,30.06,East,90,1.0,2.0,58,0.00,,,0.00,meteohub,2013-03-23 05:26:00,
2013-03-23 01:31:00,43.2,28.9,30.06,NW,315,1.0,2.0,57,0.00,,,0.00,meteohub,2013-03-23 05:31:00,
2013-03-23 01:36:00,43.3,28.8,30.05,West,270,1.0,2.0,56,0.00,,,0.00,meteohub,2013-03-23 05:36:00,
2013-03-23 01:41:00,43.3,28.8,30.05,North,0,1.0,2.0,56,0.00,,,0.00,meteohub,2013-03-23 05:41:00,
2013-03-23 01:46:00,43.5,28.4,30.05,SW,225,1.0,2.0,55,0.00,,,0.00,meteohub,2013-03-23 05:46:00,
2013-03-23 01:52:00,43.5,28.4,30.05,NE,45,2.0,2.0,55,0.00,,,0.00,meteohub,2013-03-23 05:52:00,
2013-03-23 01:57:00,43.7,28.6,30.05,SW,225,2.0,2.0,55,0.00,,,0.00,meteohub,2013-03-23 05:57:00,
2013-03-23 02:02:00,43.7,28.6,30.05,West,270,2.0,2.0,55,0.00,,,0.00,meteohub,2013-03-23 06:02:00,
2013-03-23 02:07:00,43.9,28.8,30.06,SW,225,0.0,2.0,55,0.00,,,0.00,meteohub,2013-03-23 06:07:00,
2013-03-23 02:12:00,43.7,28.6,30.05,North,0,0.0,2.0,55,0.00,,,0.00,meteohub,2013-03-23 06:12:00,
2013-03-23 02:17:00,43.7,28.6,30.05,North,0,0.0,2.0,55,0.00,,,0.00,meteohub,2013-03-23 06:17:00,
2013-03-23 02:22:00,43.7,28.6,30.05,SW,225,1.0,1.0,55,0.00,,,0.00,meteohub,2013-03-23 06:22:00,
2013-03-23 02:27:00,43.7,28.6,30.04,West,270,0.0,1.0,55,0.00,,,0.00,meteohub,2013-03-23 06:27:00,
2013-03-23 02:32:00,43.7,29.1,30.04,North,0,1.0,2.0,56,0.00,,,0.00,meteohub,2013-03-23 06:32:00,
2013-03-23 02:37:00,43.7,28.6,30.04,NW,315,1.0,2.0,55,0.00,,,0.00,meteohub,2013-03-23 06:37:00,
2013-03-23 02:42:00,43.9,28.8,30.04,SW,225,1.0,2.0,55,0.00,,,0.00,meteohub,2013-03-23 06:42:00,
2013-03-23 02:47:00,43.9,28.8,30.04,West,270,1.0,2.0,55,0.00,,,0.00,meteohub,2013-03-23 06:47:00,
2013-03-23 02:53:00,43.9,29.1,30.04,South,180,1.0,2.0,56,0.00,,,0.00,meteohub,2013-03-23 06:53:00,
2013-03-23 03:00:00,43.9,29.1,30.04,NW,315,1.0,2.0,56,0.00,,,0.00,meteohub,2013-03-23 07:00:00,
2013-03-23 03:05:00,43.7,29.5,30.03,West,270,2.0,2.0,57,0.00,,,0.00,meteohub,2013-03-23 07:05:00,
2013-03-23 03:10:00,43.7,29.5,30.04,South,180,0.0,2.0,57,0.00,,,0.00,meteohub,2013-03-23 07:10:00,
2013-03-23 03:15:00,43.7,29.5,30.04,West,270,1.0,2.0,57,0.00,,,0.00,meteohub,2013-03-23 07:15:00,
2013-03-23 03:20:00,43.9,29.7,30.04,SE,135,0.0,2.0,57,0.00,,,0.00,meteohub,2013-03-23 07:20:00,
2013-03-23 03:25:00,43.9,29.7,30.04,NE,45,1.0,2.0,57,0.00,,,0.00,meteohub,2013-03-23 07:25:00,
2013-03-23 03:30:00,43.9,29.7,30.04,South,180,1.0,2.0,57,0.00,,,0.00,meteohub,2013-03-23 07:30:00,
2013-03-23 03:35:00,43.9,29.7,30.04,South,180,2.0,2.0,57,0.00,,,0.00,meteohub,2013-03-23 07:35:00,
2013-03-23 03:40:00,44.1,29.3,30.03,SW,225,2.0,2.0,56,0.00,,,0.00,meteohub,2013-03-23 07:40:00,
2013-03-23 03:45:00,43.9,29.1,30.03,South,180,1.0,2.0,56,0.00,,,0.00,meteohub,2013-03-23 07:45:00,
2013-03-23 03:50:00,43.9,29.1,30.03,NW,315,1.0,2.0,56,0.00,,,0.00,meteohub,2013-03-23 07:50:00,
2013-03-23 03:55:00,43.9,29.7,30.02,NE,45,0.0,2.0,57,0.00,,,0.00,meteohub,2013-03-23 07:55:00,
2013-03-23 04:00:00,43.9,29.7,30.02,NE,45,0.0,2.0,57,0.00,,,0.00,meteohub,2013-03-23 08:00:00,
2013-03-23 04:05:00,43.7,29.1,30.03,SW,225,0.0,2.0,56,0.00,,,0.00,meteohub,2013-03-23 08:05:00,
2013-03-23 04:10:00,43.7,29.5,30.03,SW,225,0.0,0.0,57,0.00,,,0.00,meteohub,2013-03-23 08:10:00,
2013-03-23 04:16:00,43.7,29.5,30.03,SW,225,0.0,0.0,57,0.00,,,0.00,meteohub,2013-03-23 08:16:00,
2013-03-23 04:21:00,43.7,29.5,30.03,SW,225,0.0,0.0,57,0.00,,,0.00,meteohub,2013-03-23 08:21:00,
2013-03-23 04:26:00,43.5,29.3,30.03,NW,315,0.0,0.0,57,0.00,,,0.00,meteohub,2013-03-23 08:26:00,
2013-03-23 04:31:00,43.5,29.7,30.04,NW,315,1.0,0.0,58,0.00,,,0.00,meteohub,2013-03-23 08:31:00,
2013-03-23 04:36:00,43.5,30.2,30.03,NE,45,0.0,1.0,59,0.00,,,0.00,meteohub,2013-03-23 08:36:00,
2013-03-23 04:41:00,43.3,29.5,30.03,NE,45,0.0,1.0,58,0.00,,,0.00,meteohub,2013-03-23 08:41:00,
2013-03-23 04:46:00,43.3,29.5,30.04,West,270,0.0,1.0,58,0.00,,,0.00,meteohub,2013-03-23 08:46:00,
2013-03-23 04:52:00,43.5,30.2,30.03,South,180,0.0,1.0,59,0.00,,,0.00,meteohub,2013-03-23 08:52:00,
2013-03-23 04:57:00,43.5,29.7,30.04,South,180,0.0,1.0,58,0.00,,,0.00,meteohub,2013-03-23 08:57:00,
2013-03-23 05:02:00,43.3,30.0,30.04,South,180,0.0,0.0,59,0.00,,,0.00,meteohub,2013-03-23 09:02:00,
2013-03-23 05:07:00,43.3,30.0,30.03,SW,225,0.0,0.0,59,0.00,,,0.00,meteohub,2013-03-23 09:07:00,
2013-03-23 05:12:00,43.2,30.2,30.04,SW,225,0.0,0.0,60,0.00,,,0.00,meteohub,2013-03-23 09:12:00,
2013-03-23 05:17:00,43.0,30.0,30.04,SW,225,0.0,0.0,60,0.00,,,0.00,meteohub,2013-03-23 09:17:00,
2013-03-23 05:22:00,43.0,30.4,30.04,SW,225,0.0,0.0,61,0.00,,,0.00,meteohub,2013-03-23 09:22:00,
2013-03-23 05:27:00,42.8,29.8,30.04,SW,225,0.0,0.0,60,0.00,,,0.00,meteohub,2013-03-23 09:27:00,
2013-03-23 05:32:00,42.8,29.8,30.04,SW,225,0.0,0.0,60,0.00,,,0.00,meteohub,2013-03-23 09:32:00,
2013-03-23 05:38:00,42.6,30.6,30.04,SW,225,0.0,0.0,62,0.00,,,0.00,meteohub,2013-03-23 09:38:00,
2013-03-23 05:43:00,42.6,30.6,30.04,SW,225,0.0,0.0,62,0.00,,,0.00,meteohub,2013-03-23 09:43:00,
2013-03-23 05:48:00,42.6,30.9,30.04,East,90,0.0,0.0,63,0.00,,,0.00,meteohub,2013-03-23 09:48:00,
2013-03-23 05:53:00,42.6,30.6,30.04,East,90,0.0,0.0,62,0.00,,,0.00,meteohub,2013-03-23 09:53:00,
2013-03-23 05:58:00,42.6,30.6,30.04,East,90,0.0,0.0,62,0.00,,,0.00,meteohub,2013-03-23 09:58:00,
2013-03-23 06:03:00,42.6,30.9,30.04,East,90,0.0,0.0,63,0.00,,,0.00,meteohub,2013-03-23 10:03:00,
2013-03-23 06:08:00,42.4,31.1,30.04,East,90,0.0,0.0,64,0.00,,,0.00,meteohub,2013-03-23 10:08:00,
2013-03-23 06:13:00,42.4,31.1,30.05,East,90,0.0,0.0,64,0.00,,,0.00,meteohub,2013-03-23 10:13:00,
2013-03-23 06:18:00,42.3,30.9,30.05,East,90,0.0,0.0,64,0.00,,,0.00,meteohub,2013-03-23 10:18:00,
2013-03-23 06:23:00,42.1,30.7,30.05,East,90,0.0,0.0,64,0.00,,,0.00,meteohub,2013-03-23 10:23:00,
2013-03-23 06:28:00,42.1,31.5,30.05,East,90,0.0,0.0,66,0.00,,,0.00,meteohub,2013-03-23 10:28:00,
2013-03-23 06:33:00,41.9,31.8,30.05,East,90,0.0,0.0,67,0.00,,,0.00,meteohub,2013-03-23 10:33:00,
2013-03-23 06:39:00,41.7,31.3,30.05,East,90,0.0,0.0,66,0.00,,,0.00,meteohub,2013-03-23 10:39:00,
2013-03-23 06:44:00,41.7,31.3,30.06,NW,315,0.0,0.0,66,0.00,,,0.00,meteohub,2013-03-23 10:44:00,
2013-03-23 06:49:00,41.7,31.6,30.06,NW,315,0.0,0.0,67,0.00,,,0.00,meteohub,2013-03-23 10:49:00,
2013-03-23 06:54:00,41.7,31.3,30.06,East,90,0.0,0.0,66,0.00,,,0.00,meteohub,2013-03-23 10:54:00,
2013-03-23 06:59:00,41.9,31.5,30.06,SW,225,0.0,0.0,66,0.00,,,0.00,meteohub,2013-03-23 10:59:00,
2013-03-23 07:05:00,41.9,31.5,30.05,NE,45,0.0,0.0,66,0.00,,,0.00,meteohub,2013-03-23 11:05:00,
2013-03-23 07:10:00,41.7,30.7,30.06,NE,45,0.0,0.0,65,0.00,,,0.00,meteohub,2013-03-23 11:10:00,
2013-03-23 07:15:00,41.7,30.7,30.06,NE,45,0.0,0.0,65,0.00,,,0.00,meteohub,2013-03-23 11:15:00,
2013-03-23 07:20:00,41.5,30.2,30.06,NE,45,0.0,0.0,64,0.00,,,0.00,meteohub,2013-03-23 11:20:00,
2013-03-23 07:25:00,41.5,30.2,30.07,North,0,0.0,0.0,64,0.00,,,0.00,meteohub,2013-03-23 11:25:00,
2013-03-23 07:30:00,41.4,30.6,30.07,SW,225,0.0,0.0,65,0.00,,,0.00,meteohub,2013-03-23 11:30:00,
2013-03-23 07:35:00,41.4,30.9,30.06,SW,225,0.0,0.0,66,0.00,,,0.00,meteohub,2013-03-23 11:35:00,
2013-03-23 07:40:00,41.2,31.1,30.06,SW,225,0.0,0.0,67,0.00,,,0.00,meteohub,2013-03-23 11:40:00,
2013-03-23 07:45:00,41.0,30.6,30.06,SW,225,0.0,0.0,66,0.00,,,0.00,meteohub,2013-03-23 11:45:00,
2013-03-23 07:50:00,41.0,30.6,30.06,SW,225,0.0,0.0,66,0.00,,,0.00,meteohub,2013-03-23 11:50:00,
2013-03-23 07:55:00,41.2,30.7,30.07,SW,225,0.0,0.0,66,0.00,,,0.00,meteohub,2013-03-23 11:55:00,
2013-03-23 08:00:00,41.5,30.7,30.06,NE,45,0.0,0.0,65,0.00,,,0.00,meteohub,2013-03-23 12:00:00,
2013-03-23 08:05:00,41.7,30.7,30.07,West,270,0.0,0.0,65,0.00,,,0.00,meteohub,2013-03-23 12:05:00,
2013-03-23 08:10:00,42.1,31.1,30.07,NW,315,0.0,0.0,65,0.00,,,0.00,meteohub,2013-03-23 12:10:00,
2013-03-23 08:15:00,42.3,30.9,30.07,North,0,0.0,0.0,64,0.00,,,0.00,meteohub,2013-03-23 12:15:00,
2013-03-23 08:20:00,42.4,31.1,30.07,NE,45,0.0,0.0,64,0.00,,,0.00,meteohub,2013-03-23 12:20:00,
2013-03-23 08:25:00,43.2,31.8,30.06,East,90,0.0,0.0,64,0.00,,,0.00,meteohub,2013-03-23 12:25:00,
2013-03-23 08:31:00,43.9,32.2,30.07,NE,45,0.0,0.0,63,0.00,,,0.00,meteohub,2013-03-23 12:31:00,
2013-03-23 08:36:00,44.1,31.5,30.07,NE,45,3.0,3.0,61,0.00,,,0.00,meteohub,2013-03-23 12:36:00,
2013-03-23 08:41:00,44.1,31.1,30.07,NE,45,2.0,3.0,60,0.00,,,0.00,meteohub,2013-03-23 12:41:00,
2013-03-23 08:46:00,44.6,30.4,30.08,North,0,2.0,3.0,57,0.00,,,0.00,meteohub,2013-03-23 12:46:00,
2013-03-23 08:51:00,45.3,30.6,30.07,NE,45,1.0,3.0,56,0.00,,,0.00,meteohub,2013-03-23 12:51:00,
2013-03-23 08:56:00,45.3,29.1,30.08,NE,45,2.0,2.0,53,0.00,,,0.00,meteohub,2013-03-23 12:56:00,
2013-03-23 09:01:00,45.3,28.8,30.08,South,180,3.0,3.0,52,0.00,,,0.00,meteohub,2013-03-23 13:01:00,
2013-03-23 09:07:00,45.7,29.1,30.07,NE,45,1.0,3.0,52,0.00,,,0.00,meteohub,2013-03-23 13:07:00,
2013-03-23 09:12:00,45.9,29.3,30.08,North,0,2.0,3.0,52,0.00,,,0.00,meteohub,2013-03-23 13:12:00,
2013-03-23 09:17:00,46.2,29.5,30.08,North,0,2.0,3.0,52,0.00,,,0.00,meteohub,2013-03-23 13:17:00,
2013-03-23 09:22:00,46.6,29.8,30.07,NE,45,2.0,3.0,52,0.00,,,0.00,meteohub,2013-03-23 13:22:00,
2013-03-23 09:27:00,46.9,29.8,30.07,NW,315,2.0,2.0,51,0.00,,,0.00,meteohub,2013-03-23 13:27:00,
2013-03-23 09:32:00,47.5,31.3,30.07,West,270,4.0,4.0,53,0.00,,,0.00,meteohub,2013-03-23 13:32:00,
2013-03-23 09:37:00,47.7,30.9,30.07,NE,45,2.0,4.0,52,0.00,,,0.00,meteohub,2013-03-23 13:37:00,
2013-03-23 09:42:00,48.0,30.2,30.07,North,0,2.0,4.0,50,0.00,,,0.00,meteohub,2013-03-23 13:42:00,
2013-03-23 09:47:00,48.6,29.8,30.07,NE,45,1.0,4.0,48,0.00,,,0.00,meteohub,2013-03-23 13:47:00,
2013-03-23 09:52:00,49.3,29.3,30.07,NE,45,2.0,3.0,46,0.00,,,0.00,meteohub,2013-03-23 13:52:00,
2013-03-23 09:57:00,49.6,28.6,30.07,North,0,1.0,3.0,44,0.00,,,0.00,meteohub,2013-03-23 13:57:00,
2013-03-23 10:02:00,49.6,28.6,30.07,North,0,2.0,3.0,44,0.00,,,0.00,meteohub,2013-03-23 14:02:00,
2013-03-23 10:07:00,48.9,28.0,30.08,West,270,2.0,3.0,44,0.00,,,0.00,meteohub,2013-03-23 14:07:00,
2013-03-23 10:12:00,48.6,28.2,30.07,NW,315,2.0,4.0,45,0.00,,,0.00,meteohub,2013-03-23 14:12:00,
2013-03-23 10:17:00,48.4,28.6,30.08,West,270,3.0,4.0,46,0.00,,,0.00,meteohub,2013-03-23 14:17:00,
2013-03-23 10:22:00,48.4,29.7,30.08,North,0,2.0,3.0,48,0.00,,,0.00,meteohub,2013-03-23 14:22:00,
2013-03-23 10:28:00,48.2,29.5,30.08,West,270,2.0,3.0,48,0.00,,,0.00,meteohub,2013-03-23 14:28:00,
2013-03-23 10:33:00,48.0,29.3,30.08,West,270,2.0,3.0,48,0.00,,,0.00,meteohub,2013-03-23 14:33:00,
2013-03-23 10:38:00,47.8,29.1,30.08,NE,45,2.0,3.0,48,0.00,,,0.00,meteohub,2013-03-23 14:38:00,
2013-03-23 10:43:00,47.7,27.9,30.08,West,270,2.0,3.0,46,0.00,,,0.00,meteohub,2013-03-23 14:43:00,
2013-03-23 10:48:00,47.7,28.9,30.08,NE,45,2.0,2.0,48,0.00,,,0.00,meteohub,2013-03-23 14:48:00,
2013-03-23 10:53:00,47.7,28.4,30.09,West,270,2.0,2.0,47,0.00,,,0.00,meteohub,2013-03-23 14:53:00,
2013-03-23 10:58:00,47.7,28.9,30.09,West,270,2.0,2.0,48,0.00,,,0.00,meteohub,2013-03-23 14:58:00,
2013-03-23 11:03:00,47.7,28.4,30.08,SW,225,2.0,3.0,47,0.00,,,0.00,meteohub,2013-03-23 15:03:00,
2013-03-23 11:08:00,47.8,28.6,30.09,North,0,1.0,3.0,47,0.00,,,0.00,meteohub,2013-03-23 15:08:00,
2013-03-23 11:13:00,48.2,28.9,30.09,West,270,2.0,3.0,47,0.00,,,0.00,meteohub,2013-03-23 15:13:00,
2013-03-23 11:20:00,48.4,28.6,30.08,NE,45,2.0,3.0,46,0.00,,,0.00,meteohub,2013-03-23 15:20:00,
2013-03-23 11:25:00,48.6,29.3,30.08,East,90,2.0,2.0,47,0.00,,,0.00,meteohub,2013-03-23 15:25:00,
2013-03-23 11:31:00,48.7,28.9,30.08,West,270,2.0,3.0,46,0.00,,,0.00,meteohub,2013-03-23 15:31:00,
2013-03-23 11:36:00,48.7,28.9,30.08,North,0,2.0,3.0,46,0.00,,,0.00,meteohub,2013-03-23 15:36:00,
2013-03-23 11:42:00,48.7,29.5,30.08,NW,315,3.0,3.0,47,0.00,,,0.00,meteohub,2013-03-23 15:42:00,
2013-03-23 11:47:00,48.4,28.6,30.08,West,270,2.0,3.0,46,0.00,,,0.00,meteohub,2013-03-23 15:47:00,
2013-03-23 11:52:00,48.4,28.6,30.09,North,0,2.0,3.0,46,0.00,,,0.00,meteohub,2013-03-23 15:52:00,
2013-03-23 11:57:00,48.4,28.0,30.09,NE,45,2.0,3.0,45,0.00,,,0.00,meteohub,2013-03-23 15:57:00,
2013-03-23 12:04:00,48.4,28.0,30.09,NE,45,2.0,2.0,45,0.00,,,0.00,meteohub,2013-03-23 16:04:00,
2013-03-23 12:09:00,48.7,29.5,30.09,North,0,4.0,4.0,47,0.00,,,0.00,meteohub,2013-03-23 16:09:00,
2013-03-23 12:14:00,48.2,28.4,30.09,NE,45,2.0,2.0,46,0.00,,,0.00,meteohub,2013-03-23 16:14:00,
2013-03-23 12:19:00,48.0,29.3,30.08,North,0,2.0,4.0,48,0.00,,,0.00,meteohub,2013-03-23 16:19:00,
2013-03-23 12:24:00,48.0,29.8,30.08,West,270,2.0,4.0,49,0.00,,,0.00,meteohub,2013-03-23 16:24:00,
2013-03-23 12:29:00,48.0,30.7,30.07,East,90,2.0,2.0,51,0.00,,,0.00,meteohub,2013-03-23 16:29:00,
2013-03-23 12:34:00,48.4,30.0,30.06,NE,45,1.0,2.0,49,0.00,,,0.00,meteohub,2013-03-23 16:34:00,
2013-03-23 12:40:00,49.1,29.7,30.06,NE,45,2.0,2.0,47,0.00,,,0.00,meteohub,2013-03-23 16:40:00,
2013-03-23 12:45:00,49.6,30.2,30.06,North,0,0.0,2.0,47,0.00,,,0.00,meteohub,2013-03-23 16:45:00,
2013-03-23 12:50:00,50.4,30.4,30.06,NW,315,3.0,3.0,46,0.00,,,0.00,meteohub,2013-03-23 16:50:00,
2013-03-23 12:55:00,50.9,30.4,30.06,NW,315,2.0,3.0,45,0.00,,,0.00,meteohub,2013-03-23 16:55:00,
2013-03-23 13:00:00,51.4,30.7,30.06,NE,45,2.0,3.0,45,0.00,,,0.00,meteohub,2013-03-23 17:00:00,
2013-03-23 13:05:00,51.6,29.8,30.06,East,90,1.0,3.0,43,0.00,,,0.00,meteohub,2013-03-23 17:05:00,
2013-03-23 13:10:00,51.8,29.5,30.06,SW,225,1.0,5.0,42,0.00,,,0.00,meteohub,2013-03-23 17:10:00,
2013-03-23 13:15:00,51.8,29.5,30.06,North,0,2.0,5.0,42,0.00,,,0.00,meteohub,2013-03-23 17:15:00,
2013-03-23 13:20:00,52.3,28.8,30.05,WNW,293,1.0,5.0,40,0.00,,,0.00,meteohub,2013-03-23 17:20:00,
2013-03-23 13:25:00,52.3,27.5,30.05,West,270,2.0,3.0,38,0.00,,,0.00,meteohub,2013-03-23 17:25:00,
2013-03-23 13:30:00,51.8,26.4,30.05,NW,315,2.0,3.0,37,0.00,,,0.00,meteohub,2013-03-23 17:30:00,
2013-03-23 13:36:00,51.6,26.8,30.05,West,270,2.0,4.0,38,0.00,,,0.00,meteohub,2013-03-23 17:36:00,
2013-03-23 13:41:00,52.0,27.1,30.05,North,0,1.0,4.0,38,0.00,,,0.00,meteohub,2013-03-23 17:41:00,
2013-03-23 13:46:00,52.2,27.3,30.05,NE,45,2.0,4.0,38,0.00,,,0.00,meteohub,2013-03-23 17:46:00,
2013-03-23 13:51:00,52.3,25.5,30.05,SE,135,2.0,2.0,35,0.00,,,0.00,meteohub,2013-03-23 17:51:00,
2013-03-23 13:56:00,52.7,27.1,30.04,NE,45,1.0,2.0,37,0.00,,,0.00,meteohub,2013-03-23 17:56:00,
2013-03-23 14:01:00,52.9,26.6,30.04,NE,45,1.0,2.0,36,0.00,,,0.00,meteohub,2013-03-23 18:01:00,
2013-03-23 14:06:00,53.1,26.8,30.04,SW,225,1.0,2.0,36,0.00,,,0.00,meteohub,2013-03-23 18:06:00,
2013-03-23 14:12:00,53.2,28.2,30.04,North,0,1.0,2.0,38,0.00,,,0.00,meteohub,2013-03-23 18:12:00,
2013-03-23 14:17:00,53.2,28.9,30.03,West,270,2.0,2.0,39,0.00,,,0.00,meteohub,2013-03-23 18:17:00,
2013-03-23 14:22:00,53.4,29.7,30.03,South,180,1.0,2.0,40,0.00,,,0.00,meteohub,2013-03-23 18:22:00,
2013-03-23 14:27:00,53.8,28.8,30.02,West,270,2.0,2.0,38,0.00,,,0.00,meteohub,2013-03-23 18:27:00,
2013-03-23 14:32:00,53.6,28.0,30.02,West,270,2.0,2.0,37,0.00,,,0.00,meteohub,2013-03-23 18:32:00,
2013-03-23 14:37:00,53.6,28.0,30.03,West,270,2.0,2.0,37,0.00,,,0.00,meteohub,2013-03-23 18:37:00,
2013-03-23 14:43:00,53.2,28.9,30.02,West,270,2.0,2.0,39,0.00,,,0.00,meteohub,2013-03-23 18:43:00,
2013-03-23 14:48:00,53.4,29.1,30.02,West,270,2.0,2.0,39,0.00,,,0.00,meteohub,2013-03-23 18:48:00,
2013-03-23 14:53:00,53.2,30.2,30.02,West,270,2.0,2.0,41,0.00,,,0.00,meteohub,2013-03-23 18:53:00,
2013-03-23 14:58:00,53.6,29.8,30.01,NW,315,1.0,2.0,40,0.00,,,0.00,meteohub,2013-03-23 18:58:00,
2013-03-23 15:03:00,54.1,30.9,30.01,NW,315,2.0,2.0,41,0.00,,,0.00,meteohub,2013-03-23 19:03:00,
2013-03-23 15:08:00,54.5,31.3,30.01,NW,315,2.0,2.0,41,0.00,,,0.00,meteohub,2013-03-23 19:08:00,
2013-03-23 15:13:00,54.5,31.3,30.00,NW,315,2.0,2.0,41,0.00,,,0.00,meteohub,2013-03-23 19:13:00,
2013-03-23 15:18:00,54.5,31.3,30.00,NW,315,1.0,2.0,41,0.00,,,0.00,meteohub,2013-03-23 19:18:00,
2013-03-23 15:23:00,54.7,31.5,30.00,North,0,2.0,2.0,41,0.00,,,0.00,meteohub,2013-03-23 19:23:00,
2013-03-23 15:28:00,55.2,31.3,30.00,SW,225,3.0,3.0,40,0.00,,,0.00,meteohub,2013-03-23 19:28:00,
2013-03-23 15:33:00,56.1,32.2,30.00,North,0,2.0,3.0,40,0.00,,,0.00,meteohub,2013-03-23 19:33:00,
2013-03-23 15:38:00,56.1,30.9,30.00,NW,315,2.0,3.0,38,0.00,,,0.00,meteohub,2013-03-23 19:38:00,
2013-03-23 15:43:00,56.1,31.5,29.99,NNE,23,1.0,4.0,39,0.00,,,0.00,meteohub,2013-03-23 19:43:00,
2013-03-23 15:48:00,56.1,31.5,29.99,NE,45,2.0,4.0,39,0.00,,,0.00,meteohub,2013-03-23 19:48:00,
2013-03-23 15:53:00,55.8,31.1,29.99,SW,225,3.0,4.0,39,0.00,,,0.00,meteohub,2013-03-23 19:53:00,
2013-03-23 15:58:00,55.9,32.0,29.98,West,270,1.0,3.0,40,0.00,,,0.00,meteohub,2013-03-23 19:58:00,
2013-03-23 16:04:00,56.7,32.5,29.98,East,90,0.0,3.0,40,0.00,,,0.00,meteohub,2013-03-23 20:04:00,
2013-03-23 16:09:00,56.1,31.5,29.99,NE,45,1.0,3.0,39,0.00,,,0.00,meteohub,2013-03-23 20:09:00,
2013-03-23 16:14:00,56.1,31.5,29.98,NW,315,0.0,3.0,39,0.00,,,0.00,meteohub,2013-03-23 20:14:00,
2013-03-23 16:19:00,56.7,33.8,29.98,NE,45,2.0,3.0,42,0.00,,,0.00,meteohub,2013-03-23 20:19:00,
2013-03-23 16:24:00,57.2,32.5,29.98,East,90,1.0,2.0,39,0.00,,,0.00,meteohub,2013-03-23 20:24:00,
2013-03-23 16:29:00,57.2,33.1,29.98,SE,135,2.0,2.0,40,0.00,,,0.00,meteohub,2013-03-23 20:29:00,
2013-03-23 16:34:00,57.2,32.5,29.98,SE,135,1.0,2.0,39,0.00,,,0.00,meteohub,2013-03-23 20:34:00,
2013-03-23 16:39:00,57.4,33.3,29.98,NE,45,2.0,2.0,40,0.00,,,0.00,meteohub,2013-03-23 20:39:00,
2013-03-23 16:44:00,56.8,32.2,29.98,West,270,1.0,2.0,39,0.00,,,0.00,meteohub,2013-03-23 20:44:00,
2013-03-23 16:49:00,56.8,32.7,29.97,West,270,2.0,2.0,40,0.00,,,0.00,meteohub,2013-03-23 20:49:00,
2013-03-23 16:54:00,56.8,32.7,29.97,East,90,2.0,2.0,40,0.00,,,0.00,meteohub,2013-03-23 20:54:00,
2013-03-23 16:59:00,58.3,34.0,29.97,SW,225,2.0,3.0,40,0.00,,,0.00,meteohub,2013-03-23 20:59:00,
2013-03-23 17:04:00,58.6,33.1,29.98,SW,225,2.0,3.0,38,0.00,,,0.00,meteohub,2013-03-23 21:04:00,
2013-03-23 17:09:00,58.1,33.3,29.97,West,270,1.0,3.0,39,0.00,,,0.00,meteohub,2013-03-23 21:09:00,
2013-03-23 17:14:00,59.0,33.4,29.97,SW,225,1.0,3.0,38,0.00,,,0.00,meteohub,2013-03-23 21:14:00,
2013-03-23 17:19:00,60.1,33.8,29.96,NE,45,2.0,2.0,37,0.00,,,0.00,meteohub,2013-03-23 21:19:00,
2013-03-23 17:24:00,60.6,34.2,29.96,NE,45,2.0,2.0,37,0.00,,,0.00,meteohub,2013-03-23 21:24:00,
2013-03-23 17:29:00,60.6,33.4,29.96,NE,45,2.0,2.0,36,0.00,,,0.00,meteohub,2013-03-23 21:29:00,
2013-03-23 17:34:00,59.5,33.3,29.96,North,0,1.0,3.0,37,0.00,,,0.00,meteohub,2013-03-23 21:34:00,
2013-03-23 17:40:00,58.3,33.4,29.96,NE,45,1.0,3.0,39,0.00,,,0.00,meteohub,2013-03-23 21:40:00,
2013-03-23 17:45:00,58.3,33.4,29.95,SW,225,3.0,3.0,39,0.00,,,0.00,meteohub,2013-03-23 21:45:00,
2013-03-23 17:50:00,57.7,34.2,29.95,East,90,1.0,3.0,41,0.00,,,0.00,meteohub,2013-03-23 21:50:00,
2013-03-23 17:55:00,57.7,34.2,29.95,NE,45,2.0,3.0,41,0.00,,,0.00,meteohub,2013-03-23 21:55:00,
2013-03-23 18:00:00,58.1,34.0,29.96,West,270,2.0,3.0,40,0.00,,,0.00,meteohub,2013-03-23 22:00:00,
2013-03-23 18:05:00,58.6,34.3,29.95,NE,45,2.0,3.0,40,0.00,,,0.00,meteohub,2013-03-23 22:05:00,
2013-03-23 18:10:00,59.2,34.2,29.95,West,270,1.0,3.0,39,0.00,,,0.00,meteohub,2013-03-23 22:10:00,
2013-03-23 18:15:00,59.7,34.7,29.95,NE,45,2.0,2.0,39,0.00,,,0.00,meteohub,2013-03-23 22:15:00,
2013-03-23 18:20:00,59.7,34.7,29.95,West,270,1.0,2.0,39,0.00,,,0.00,meteohub,2013-03-23 22:20:00,
2013-03-23 18:25:00,59.4,33.8,29.94,NE,45,1.0,2.0,38,0.00,,,0.00,meteohub,2013-03-23 22:25:00,
2013-03-23 18:30:00,58.6,33.8,29.94,NE,45,1.0,2.0,39,0.00,,,0.00,meteohub,2013-03-23 22:30:00,
2013-03-23 18:35:00,57.7,34.2,29.94,North,0,1.0,2.0,41,0.00,,,0.00,meteohub,2013-03-23 22:35:00,
2013-03-23 18:40:00,56.8,35.2,29.94,SW,225,0.0,2.0,44,0.00,,,0.00,meteohub,2013-03-23 22:40:00,
2013-03-23 18:45:00,55.9,34.3,29.94,West,270,2.0,2.0,44,0.00,,,0.00,meteohub,2013-03-23 22:45:00,
2013-03-23 18:50:00,55.2,33.6,29.94,West,270,0.0,2.0,44,0.00,,,0.00,meteohub,2013-03-23 22:50:00,
2013-03-23 18:55:00,54.7,33.3,29.94,East,90,0.0,2.0,44,0.00,,,0.00,meteohub,2013-03-23 22:55:00,
2013-03-23 19:00:00,54.1,33.3,29.94,East,90,0.0,2.0,45,0.00,,,0.00,meteohub,2013-03-23 23:00:00,
2013-03-23 19:05:00,53.8,33.4,29.94,South,180,0.0,0.0,46,0.00,,,0.00,meteohub,2013-03-23 23:05:00,
2013-03-23 19:10:00,53.4,34.2,29.94,South,180,0.0,0.0,48,0.00,,,0.00,meteohub,2013-03-23 23:10:00,
2013-03-23 19:15:00,53.1,34.3,29.95,South,180,0.0,0.0,49,0.00,,,0.00,meteohub,2013-03-23 23:15:00,
2013-03-23 19:21:00,52.3,34.2,29.95,South,180,0.0,0.0,50,0.00,,,0.00,meteohub,2013-03-23 23:21:00,
2013-03-23 19:26:00,51.8,34.7,29.96,South,180,0.0,0.0,52,0.00,,,0.00,meteohub,2013-03-23 23:26:00,
2013-03-23 19:32:00,51.3,34.7,29.95,East,90,0.0,0.0,53,0.00,,,0.00,meteohub,2013-03-23 23:32:00,
2013-03-23 19:37:00,50.7,34.7,29.96,East,90,0.0,0.0,54,0.00,,,0.00,meteohub,2013-03-23 23:37:00,
2013-03-23 19:42:00,50.2,34.7,29.96,East,90,0.0,0.0,55,0.00,,,0.00,meteohub,2013-03-23 23:42:00,
2013-03-23 19:47:00,49.6,35.1,29.97,East,90,0.0,0.0,57,0.00,,,0.00,meteohub,2013-03-23 23:47:00,
2013-03-23 19:52:00,49.1,34.9,29.97,East,90,0.0,0.0,58,0.00,,,0.00,meteohub,2013-03-23 23:52:00,
2013-03-23 19:57:00,48.6,34.9,29.97,East,90,0.0,0.0,59,0.00,,,0.00,meteohub,2013-03-23 23:57:00,
2013-03-23 20:02:00,48.2,34.9,29.97,East,90,0.0,0.0,60,0.00,,,0.00,meteohub,2013-03-24 00:02:00,
2013-03-23 20:07:00,47.7,34.9,29.98,East,90,0.0,0.0,61,0.00,,,0.00,meteohub,2013-03-24 00:07:00,
2013-03-23 20:12:00,47.1,35.2,29.98,East,90,0.0,0.0,63,0.00,,,0.00,meteohub,2013-03-24 00:12:00,
2013-03-23 20:17:00,46.6,35.1,29.99,East,90,0.0,0.0,64,0.00,,,0.00,meteohub,2013-03-24 00:17:00,
2013-03-23 20:22:00,46.2,35.1,29.99,East,90,0.0,0.0,65,0.00,,,0.00,meteohub,2013-03-24 00:22:00,
2013-03-23 20:27:00,45.9,35.1,30.00,East,90,0.0,0.0,66,0.00,,,0.00,meteohub,2013-03-24 00:27:00,
2013-03-23 20:32:00,45.5,35.2,29.99,East,90,0.0,0.0,67,0.00,,,0.00,meteohub,2013-03-24 00:32:00,
2013-03-23 20:37:00,45.3,35.8,29.99,East,90,0.0,0.0,69,0.00,,,0.00,meteohub,2013-03-24 00:37:00,
2013-03-23 20:42:00,45.0,35.8,29.99,East,90,0.0,0.0,70,0.00,,,0.00,meteohub,2013-03-24 00:42:00,
2013-03-23 20:48:00,44.8,35.6,30.00,SW,225,0.0,0.0,70,0.00,,,0.00,meteohub,2013-03-24 00:48:00,
2013-03-23 20:53:00,44.6,35.8,30.00,SW,225,0.0,0.0,71,0.00,,,0.00,meteohub,2013-03-24 00:53:00,
2013-03-23 20:58:00,44.2,35.8,29.99,SW,225,0.0,0.0,72,0.00,,,0.00,meteohub,2013-03-24 00:58:00,
2013-03-23 21:03:00,43.9,35.4,30.00,SW,225,0.0,0.0,72,0.00,,,0.00,meteohub,2013-03-24 01:03:00,
2013-03-23 21:08:00,43.5,35.1,30.01,SW,225,0.0,0.0,72,0.00,,,0.00,meteohub,2013-03-24 01:08:00,
2013-03-23 21:13:00,43.3,35.2,30.01,SW,225,0.0,0.0,73,0.00,,,0.00,meteohub,2013-03-24 01:13:00,
2013-03-23 21:18:00,43.0,34.9,30.01,SW,225,0.0,0.0,73,0.00,,,0.00,meteohub,2013-03-24 01:18:00,
2013-03-23 21:23:00,42.8,34.7,30.01,SW,225,0.0,0.0,73,0.00,,,0.00,meteohub,2013-03-24 01:23:00,
2013-03-23 21:28:00,42.4,35.1,30.01,SW,225,0.0,0.0,75,0.00,,,0.00,meteohub,2013-03-24 01:28:00,
2013-03-23 21:33:00,42.4,35.1,30.02,SW,225,0.0,0.0,75,0.00,,,0.00,meteohub,2013-03-24 01:33:00,
2013-03-23 21:38:00,42.4,35.1,30.02,SW,225,0.0,0.0,75,0.00,,,0.00,meteohub,2013-03-24 01:38:00,
2013-03-23 21:43:00,41.9,34.9,30.02,SW,225,0.0,0.0,76,0.00,,,0.00,meteohub,2013-03-24 01:43:00,
2013-03-23 21:48:00,41.7,34.7,30.02,SW,225,0.0,0.0,76,0.00,,,0.00,meteohub,2013-03-24 01:48:00,
2013-03-23 21:53:00,41.5,34.9,30.03,SW,225,0.0,0.0,77,0.00,,,0.00,meteohub,2013-03-24 01:53:00,
2013-03-23 21:58:00,41.5,34.9,30.03,SW,225,0.0,0.0,77,0.00,,,0.00,meteohub,2013-03-24 01:58:00,
2013-03-23 22:03:00,41.4,34.7,30.03,NE,45,0.0,0.0,77,0.00,,,0.00,meteohub,2013-03-24 02:03:00,
2013-03-23 22:08:00,41.4,35.1,30.03,West,270,0.0,0.0,78,0.00,,,0.00,meteohub,2013-03-24 02:08:00,
2013-03-23 22:15:00,41.2,34.5,30.02,West,270,0.0,0.0,77,0.00,,,0.00,meteohub,2013-03-24 02:15:00,
2013-03-23 22:20:00,41.2,34.9,30.02,East,90,0.0,0.0,78,0.00,,,0.00,meteohub,2013-03-24 02:20:00,
2013-03-23 22:25:00,41.4,35.1,30.02,East,90,0.0,0.0,78,0.00,,,0.00,meteohub,2013-03-24 02:25:00,
2013-03-23 22:30:00,41.4,34.7,30.01,East,90,0.0,0.0,77,0.00,,,0.00,meteohub,2013-03-24 02:30:00,
2013-03-23 22:35:00,41.4,34.3,30.01,East,90,0.0,0.0,76,0.00,,,0.00,meteohub,2013-03-24 02:35:00,
2013-03-23 22:41:00,41.5,34.2,30.01,East,90,0.0,0.0,75,0.00,,,0.00,meteohub,2013-03-24 02:41:00,
2013-03-23 22:46:00,41.5,33.8,30.00,East,90,0.0,0.0,74,0.00,,,0.00,meteohub,2013-03-24 02:46:00,
2013-03-23 22:51:00,41.5,33.6,30.00,East,90,0.0,0.0,73,0.00,,,0.00,meteohub,2013-03-24 02:51:00,
2013-03-23 22:56:00,41.5,33.6,30.01,East,90,0.0,0.0,73,0.00,,,0.00,meteohub,2013-03-24 02:56:00,
2013-03-23 23:02:00,41.2,33.3,30.00,East,90,0.0,0.0,73,0.00,,,0.00,meteohub,2013-03-24 03:02:00,
2013-03-23 23:07:00,41.2,33.4,29.99,East,90,0.0,0.0,74,0.00,,,0.00,meteohub,2013-03-24 03:07:00,
2013-03-23 23:12:00,41.0,33.4,29.99,East,90,0.0,0.0,74,0.00,,,0.00,meteohub,2013-03-24 03:12:00,
2013-03-23 23:17:00,40.6,33.3,29.98,East,90,0.0,0.0,75,0.00,,,0.00,meteohub,2013-03-24 03:17:00,
2013-03-23 23:22:00,40.3,33.1,29.98,East,90,0.0,0.0,75,0.00,,,0.00,meteohub,2013-03-24 03:22:00,
2013-03-23 23:27:00,40.1,33.1,29.98,East,90,0.0,0.0,76,0.00,,,0.00,meteohub,2013-03-24 03:27:00,
2013-03-23 23:32:00,39.9,32.9,29.98,East,90,0.0,0.0,76,0.00,,,0.00,meteohub,2013-03-24 03:32:00,
2013-03-23 23:38:00,39.6,32.5,29.99,East,90,0.0,0.0,76,0.00,,,0.00,meteohub,2013-03-24 03:38:00,
2013-03-23 23:43:00,39.2,32.5,29.98,East,90,0.0,0.0,77,0.00,,,0.00,meteohub,2013-03-24 03:43:00,
2013-03-23 23:48:00,39.0,32.7,29.97,East,90,0.0,0.0,78,0.00,,,0.00,meteohub,2013-03-24 03:48:00,
2013-03-23 23:53:00,38.7,32.7,29.97,East,90,0.0,0.0,79,0.00,,,0.00,meteohub,2013-03-24 03:53:00,
2013-03-23 23:58:00,38.5,32.5,29.96,East,90,0.0,0.0,79,0.00,,,0.00,meteohub,2013-03-24 03:58:00,